Time,TemperatureF,DewpointF,PressureIn,WindDirection,WindDirectionDegrees,WindSpeedMPH,WindSpeedGustMPH,Humidity,HourlyPrecipIn,Conditions,Clouds,dailyrainin,SoftwareType,DateUTC
2013-03-23 00:03:00,38.0,28.0,30.18,SSW,210,0.0,4.0,66,0.00,,,0.00,,2013-03-23 04:03:00,
2013-03-23 00:13:00,38.0,28.0,30.18,SSW,210,0.0,4.0,66,0.00,,,0.00,,2013-03-23 04:13:00,
2013-03-23 00:23:00,38.0,27.0,30.19,SSW,210,0.0,0.0,64,0.00,,,0.00,,2013-03-23 04:23:00,
2013-03-23 00:32:00,38.0,27.0,30.18,SSW,210,0.0,1.0,64,0.00,,,0.00,,2013-03-23 04:32:00,
2013-03-23 00:43:00,38.0,27.0,30.18,SSW,210,0.0,1.0,64,0.00,,,0.00,,2013-03-23 04:43:00,
2013-03-23 00:53:00,38.0,28.0,30.19,SSW,210,0.0,1.0,66,0.00,,,0.00,,2013-03-23 04:53:00,
2013-03-23 01:02:00,38.0,27.0,30.18,SSW,210,0.0,0.0,65,0.00,,,0.00,,2013-03-23 05:02:00,
2013-03-23 01:12:00,38.0,27.0,30.18,SSW,210,0.0,0.0,65,0.00,,,0.00,,2013-03-23 05:12:00,
2013-03-23 01:22:00,38.0,27.0,30.18,SSW,210,0.0,1.0,65,0.00,,,0.00,,2013-03-23 05:22:00,
2013-03-23 01:32:00,38.0,28.0,30.17,South,187,0.0,1.0,66,0.00,,,0.00,,2013-03-23 05:32:00,
2013-03-23 01:42:00,38.0,28.0,30.17,South,187,0.0,1.0,66,0.00,,,0.00,,2013-03-23 05:42:00,
2013-03-23 01:53:00,38.0,28.0,30.17,WSW,241,1.0,5.0,67,0.00,,,0.00,,2013-03-23 05:53:00,
2013-03-23 02:02:00,38.0,29.0,30.16,SSE,163,0.0,2.0,69,0.00,,,0.00,,2013-03-23 06:02:00,
2013-03-23 02:12:00,38.0,29.0,30.16,SSE,163,0.0,2.0,69,0.00,,,0.00,,2013-03-23 06:12:00,
2013-03-23 02:22:00,38.0,28.0,30.16,SSE,163,0.0,0.0,67,0.00,,,0.00,,2013-03-23 06:22:00,
2013-03-23 02:32:00,37.0,28.0,30.15,SSE,163,0.0,1.0,70,0.00,,,0.00,,2013-03-23 06:32:00,
2013-03-23 02:42:00,37.0,28.0,30.15,SSE,163,0.0,1.0,70,0.00,,,0.00,,2013-03-23 06:42:00,
2013-03-23 02:52:00,37.0,28.0,30.15,SSE,163,0.0,0.0,71,0.00,,,0.00,,2013-03-23 06:52:00,
2013-03-23 03:02:00,37.0,29.0,30.15,SSW,204,0.0,3.0,73,0.00,,,0.00,,2013-03-23 07:02:00,
2013-03-23 03:12:00,37.0,29.0,30.15,SSW,204,0.0,3.0,73,0.00,,,0.00,,2013-03-23 07:12:00,
2013-03-23 03:22:00,37.0,29.0,30.15,SSW,204,0.0,0.0,74,0.00,,,0.00,,2013-03-23 07:22:00,
2013-03-23 03:32:00,37.0,30.0,30.14,SSW,204,0.0,0.0,75,0.00,,,0.00,,2013-03-23 07:32:00,
2013-03-23 03:42:00,37.0,30.0,30.14,SSW,204,0.0,0.0,75,0.00,,,0.00,,2013-03-23 07:42:00,
2013-03-23 03:52:00,37.0,30.0,30.14,SSW,204,0.0,1.0,76,0.00,,,0.00,,2013-03-23 07:52:00,
2013-03-23 04:02:00,37.0,31.0,30.12,SSW,204,0.0,0.0,80,0.00,,,0.00,,2013-03-23 08:02:00,
2013-03-23 04:13:00,37.0,31.0,30.12,SSW,204,0.0,0.0,80,0.00,,,0.00,,2013-03-23 08:13:00,
2013-03-23 04:22:00,37.0,32.0,30.13,SSW,204,0.0,3.0,81,0.00,,,0.00,,2013-03-23 08:22:00,
2013-03-23 04:32:00,37.0,32.0,30.13,SSW,204,0.0,1.0,82,0.00,,,0.00,,2013-03-23 08:32:00,
2013-03-23 04:42:00,37.0,32.0,30.13,SSW,204,0.0,1.0,82,0.00,,,0.00,,2013-03-23 08:42:00,
2013-03-23 04:53:00,37.0,33.0,30.12,SSW,204,0.0,1.0,84,0.00,,,0.00,,2013-03-23 08:53:00,
2013-03-23 05:02:00,36.0,31.0,30.11,SSW,204,0.0,0.0,83,0.00,,,0.00,,2013-03-23 09:02:00,
2013-03-23 05:12:00,36.0,31.0,30.11,SSW,204,0.0,0.0,83,0.00,,,0.00,,2013-03-23 09:12:00,
2013-03-23 05:22:00,36.0,32.0,30.11,SSW,204,0.0,2.0,84,0.00,,,0.00,,2013-03-23 09:22:00,
2013-03-23 05:33:00,37.0,33.0,30.11,SSW,204,0.0,1.0,84,0.00,,,0.00,,2013-03-23 09:33:00,
2013-03-23 05:43:00,37.0,33.0,30.11,SSW,204,0.0,1.0,84,0.00,,,0.00,,2013-03-23 09:43:00,
2013-03-23 05:53:00,37.0,33.0,30.11,SSW,204,0.0,0.0,84,0.00,,,0.00,,2013-03-23 09:53:00,
2013-03-23 06:03:00,37.0,33.0,30.10,SSW,204,0.0,1.0,85,0.00,,,0.00,,2013-03-23 10:03:00,
2013-03-23 06:13:00,37.0,33.0,30.10,SSW,204,0.0,1.0,85,0.00,,,0.00,,2013-03-23 10:13:00,
2013-03-23 06:23:00,37.0,33.0,30.11,SSW,204,0.0,0.0,86,0.00,,,0.00,,2013-03-23 10:23:00,
2013-03-23 06:34:00,37.0,34.0,30.11,SSW,204,0.0,0.0,87,0.00,,,0.00,,2013-03-23 10:34:00,
2013-03-23 06:43:00,37.0,34.0,30.11,SSW,204,0.0,0.0,87,0.00,,,0.00,,2013-03-23 10:43:00,
2013-03-23 06:52:00,36.0,33.0,30.14,WSW,242,0.0,4.0,89,0.02,,,0.02,,2013-03-23 10:52:00,
2013-03-23 07:03:00,36.0,33.0,30.12,East,84,0.0,5.0,90,0.05,,,0.05,,2013-03-23 11:03:00,
2013-03-23 07:12:00,36.0,33.0,30.12,East,84,0.0,5.0,90,0.05,,,0.05,,2013-03-23 11:12:00,
2013-03-23 07:22:00,36.0,34.0,30.12,NW,323,0.0,4.0,91,0.05,,,0.05,,2013-03-23 11:22:00,
2013-03-23 07:32:00,35.0,33.0,30.12,NE,49,0.0,3.0,92,0.06,,,0.06,,2013-03-23 11:32:00,
2013-03-23 07:42:00,35.0,33.0,30.12,NE,49,0.0,3.0,92,0.06,,,0.06,,2013-03-23 11:42:00,
2013-03-23 07:52:00,35.0,33.0,30.12,NE,50,0.0,3.0,93,0.04,,,0.06,,2013-03-23 11:52:00,
2013-03-23 08:02:00,35.0,33.0,30.12,NE,50,0.0,2.0,93,0.01,,,0.06,,2013-03-23 12:02:00,
2013-03-23 08:13:00,35.0,33.0,30.12,NE,50,0.0,2.0,93,0.01,,,0.06,,2013-03-23 12:13:00,
2013-03-23 08:22:00,35.0,33.0,30.12,NE,50,0.0,0.0,93,0.01,,,0.06,,2013-03-23 12:22:00,
2013-03-23 08:33:00,35.0,33.0,30.14,NE,50,0.0,0.0,94,0.00,,,0.06,,2013-03-23 12:33:00,
2013-03-23 08:42:00,35.0,33.0,30.14,NE,50,0.0,0.0,94,0.00,,,0.06,,2013-03-23 12:42:00,
2013-03-23 08:53:00,35.0,33.0,30.14,NE,50,0.0,2.0,94,0.00,,,0.06,,2013-03-23 12:53:00,
2013-03-23 09:03:00,35.0,33.0,30.14,NE,50,0.0,1.0,94,0.00,,,0.06,,2013-03-23 13:03:00,
2013-03-23 09:12:00,35.0,33.0,30.14,NE,50,0.0,1.0,94,0.00,,,0.06,,2013-03-23 13:12:00,
2013-03-23 09:23:00,35.0,34.0,30.14,NE,50,0.0,0.0,95,0.00,,,0.06,,2013-03-23 13:23:00,
2013-03-23 09:33:00,36.0,35.0,30.14,NE,50,0.0,1.0,95,0.00,,,0.06,,2013-03-23 13:33:00,
2013-03-23 09:43:00,36.0,35.0,30.14,NE,50,0.0,1.0,95,0.00,,,0.06,,2013-03-23 13:43:00,
2013-03-23 09:53:00,36.0,35.0,30.13,NE,50,0.0,1.0,95,0.00,,,0.06,,2013-03-23 13:53:00,
2013-03-23 10:03:00,36.0,35.0,30.14,NE,50,0.0,1.0,95,0.00,,,0.06,,2013-03-23 14:03:00,
2013-03-23 10:12:00,36.0,35.0,30.14,NE,50,0.0,1.0,95,0.00,,,0.06,,2013-03-23 14:12:00,
2013-03-23 10:23:00,36.0,35.0,30.14,NE,50,0.0,0.0,95,0.00,,,0.06,,2013-03-23 14:23:00,
2013-03-23 10:32:00,36.0,35.0,30.13,NE,50,0.0,2.0,95,0.00,,,0.06,,2013-03-23 14:32:00,
2013-03-23 10:43:00,36.0,35.0,30.13,NE,50,0.0,2.0,95,0.00,,,0.06,,2013-03-23 14:43:00,
2013-03-23 10:53:00,36.0,35.0,30.12,NE,50,0.0,2.0,95,0.00,,,0.06,,2013-03-23 14:53:00,
2013-03-23 11:03:00,37.0,36.0,30.12,NE,50,0.0,0.0,95,0.00,,,0.06,,2013-03-23 15:03:00,
2013-03-23 11:12:00,37.0,36.0,30.12,NE,50,0.0,0.0,95,0.00,,,0.06,,2013-03-23 15:12:00,
2013-03-23 11:22:00,37.0,36.0,30.12,NE,50,0.0,1.0,96,0.00,,,0.06,,2013-03-23 15:22:00,
2013-03-23 11:33:00,37.0,36.0,30.12,NE,50,0.0,1.0,96,0.00,,,0.06,,2013-03-23 15:33:00,
2013-03-23 11:43:00,37.0,36.0,30.12,NE,50,0.0,1.0,96,0.00,,,0.06,,2013-03-23 15:43:00,
2013-03-23 11:53:00,38.0,37.0,30.12,NE,50,0.0,1.0,96,0.00,,,0.06,,2013-03-23 15:53:00,
2013-03-23 12:03:00,38.0,37.0,30.12,NE,50,0.0,1.0,95,0.00,,,0.06,,2013-03-23 16:03:00,
2013-03-23 12:13:00,38.0,37.0,30.12,NE,50,0.0,1.0,95,0.00,,,0.06,,2013-03-23 16:13:00,
2013-03-23 12:23:00,39.0,38.0,30.12,NE,50,0.0,0.0,96,0.00,,,0.06,,2013-03-23 16:23:00,
2013-03-23 12:33:00,39.0,38.0,30.12,NE,50,0.0,0.0,95,0.00,,,0.06,,2013-03-23 16:33:00,
2013-03-23 12:43:00,39.0,38.0,30.12,NE,50,0.0,0.0,95,0.00,,,0.06,,2013-03-23 16:43:00,
2013-03-23 12:54:00,40.0,39.0,30.11,NE,50,0.0,1.0,96,0.00,,,0.06,,2013-03-23 16:54:00,
2013-03-23 13:03:00,41.0,40.0,30.11,NE,50,0.0,0.0,95,0.00,,,0.06,,2013-03-23 17:03:00,
2013-03-23 13:12:00,41.0,40.0,30.11,NE,50,0.0,0.0,95,0.00,,,0.06,,2013-03-23 17:12:00,
2013-03-23 13:23:00,42.0,40.0,30.10,NE,50,0.0,2.0,94,0.00,,,0.06,,2013-03-23 17:23:00,
2013-03-23 13:33:00,43.0,41.0,30.10,ENE,61,0.0,1.0,93,0.00,,,0.06,,2013-03-23 17:33:00,
2013-03-23 13:43:00,43.0,41.0,30.10,ENE,61,0.0,1.0,93,0.00,,,0.06,,2013-03-23 17:43:00,
2013-03-23 13:53:00,44.0,42.0,30.09,NNE,25,0.0,2.0,92,0.00,,,0.06,,2013-03-23 17:53:00,
2013-03-23 14:03:00,46.0,44.0,30.08,NNE,26,0.0,1.0,92,0.00,,,0.06,,2013-03-23 18:03:00,
2013-03-23 14:12:00,46.0,44.0,30.08,NNE,26,0.0,1.0,92,0.00,,,0.06,,2013-03-23 18:12:00,
2013-03-23 14:22:00,47.0,44.0,30.07,NE,56,0.0,2.0,88,0.00,,,0.06,,2013-03-23 18:22:00,
2013-03-23 14:32:00,48.0,44.0,30.06,ENE,57,1.0,4.0,86,0.00,,,0.06,,2013-03-23 18:32:00,
2013-03-23 14:43:00,48.0,44.0,30.06,ENE,57,1.0,4.0,86,0.00,,,0.06,,2013-03-23 18:43:00,
2013-03-23 14:53:00,48.0,44.0,30.06,ENE,65,0.0,3.0,85,0.00,,,0.06,,2013-03-23 18:53:00,
2013-03-23 15:03:00,49.0,44.0,30.05,ENE,63,1.0,4.0,82,0.00,,,0.06,,2013-03-23 19:03:00,
2013-03-23 15:13:00,49.0,44.0,30.05,ENE,63,1.0,4.0,82,0.00,,,0.06,,2013-03-23 19:13:00,
2013-03-23 15:23:00,50.0,45.0,30.04,ESE,115,0.0,4.0,84,0.00,,,0.06,,2013-03-23 19:23:00,
2013-03-23 15:32:00,50.0,45.0,30.04,ESE,115,0.0,4.0,84,0.00,,,0.06,,2013-03-23 19:32:00,
2013-03-23 15:42:00,50.0,45.0,30.04,ESE,115,0.0,4.0,84,0.00,,,0.06,,2013-03-23 19:42:00,
2013-03-23 15:53:00,52.0,46.0,30.03,ENE,68,0.0,2.0,79,0.00,,,0.06,,2013-03-23 19:53:00,
2013-03-23 16:03:00,53.0,46.0,30.02,North,349,0.0,3.0,77,0.00,,,0.06,,2013-03-23 20:03:00,
2013-03-23 16:13:00,53.0,46.0,30.02,North,349,0.0,3.0,77,0.00,,,0.06,,2013-03-23 20:13:00,
2013-03-23 16:22:00,53.0,46.0,30.02,NE,36,2.0,5.0,76,0.00,,,0.06,,2013-03-23 20:22:00,
2013-03-23 16:32:00,53.0,45.0,30.01,West,272,0.0,3.0,74,0.00,,,0.06,,2013-03-23 20:32:00,
2013-03-23 16:42:00,53.0,45.0,30.01,West,272,0.0,3.0,74,0.00,,,0.06,,2013-03-23 20:42:00,
2013-03-23 16:53:00,53.0,46.0,30.01,SW,232,0.0,1.0,76,0.00,,,0.06,,2013-03-23 20:53:00,
2013-03-23 17:02:00,54.0,46.0,30.00,ENE,64,0.0,4.0,74,0.00,,,0.06,,2013-03-23 21:02:00,
2013-03-23 17:12:00,54.0,46.0,30.00,ENE,64,0.0,4.0,74,0.00,,,0.06,,2013-03-23 21:12:00,
2013-03-23 17:22:00,54.0,46.0,30.00,ENE,70,0.0,3.0,75,0.00,,,0.06,,2013-03-23 21:22:00,
2013-03-23 17:33:00,54.0,46.0,30.00,ENE,70,0.0,1.0,74,0.00,,,0.06,,2013-03-23 21:33:00,
2013-03-23 17:43:00,54.0,46.0,30.00,ENE,70,0.0,1.0,74,0.00,,,0.06,,2013-03-23 21:43:00,
2013-03-23 17:54:00,54.0,46.0,29.99,ENE,70,0.0,1.0,73,0.00,,,0.06,,2013-03-23 21:54:00,
2013-03-23 18:03:00,54.0,46.0,29.99,ENE,70,0.0,1.0,75,0.00,,,0.06,,2013-03-23 22:03:00,
2013-03-23 18:13:00,54.0,46.0,29.99,ENE,70,0.0,1.0,75,0.00,,,0.06,,2013-03-23 22:13:00,
2013-03-23 18:23:00,53.0,45.0,29.99,NNW,345,0.0,2.0,75,0.00,,,0.06,,2013-03-23 22:23:00,
2013-03-23 18:33:00,53.0,46.0,30.00,NNW,345,0.0,3.0,77,0.00,,,0.06,,2013-03-23 22:33:00,
2013-03-23 18:42:00,53.0,46.0,30.00,NNW,345,0.0,3.0,77,0.00,,,0.06,,2013-03-23 22:42:00,
2013-03-23 18:53:00,52.0,45.0,29.99,NNW,345,0.0,0.0,78,0.00,,,0.06,,2013-03-23 22:53:00,
2013-03-23 19:02:00,52.0,45.0,29.99,NNW,345,0.0,1.0,78,0.00,,,0.06,,2013-03-23 23:02:00,
2013-03-23 19:13:00,52.0,45.0,29.99,NNW,345,0.0,1.0,78,0.00,,,0.06,,2013-03-23 23:13:00,
2013-03-23 19:23:00,52.0,45.0,30.00,SW,236,3.0,6.0,78,0.00,,,0.06,,2013-03-23 23:23:00,
2013-03-23 19:33:00,52.0,45.0,29.99,SW,224,0.0,4.0,78,0.00,,,0.06,,2013-03-23 23:33:00,
2013-03-23 19:43:00,52.0,45.0,29.99,SW,224,0.0,4.0,78,0.00,,,0.06,,2013-03-23 23:43:00,
2013-03-23 19:53:00,52.0,46.0,29.99,WSW,245,1.0,5.0,79,0.00,,,0.06,,2013-03-23 23:53:00,
2013-03-23 20:02:00,51.0,45.0,29.98,SW,223,0.0,3.0,79,0.00,,,0.06,,2013-03-24 00:02:00,
2013-03-23 20:13:00,51.0,45.0,29.98,SW,223,0.0,3.0,79,0.00,,,0.06,,2013-03-24 00:13:00,
2013-03-23 20:23:00,51.0,45.0,29.98,SW,222,0.0,0.0,80,0.00,,,0.06,,2013-03-24 00:23:00,
2013-03-23 20:33:00,51.0,45.0,29.98,SW,223,0.0,0.0,80,0.00,,,0.06,,2013-03-24 00:33:00,
2013-03-23 20:42:00,51.0,45.0,29.98,SW,223,0.0,0.0,80,0.00,,,0.06,,2013-03-24 00:42:00,
2013-03-23 20:53:00,50.0,44.0,29.97,SW,222,0.0,0.0,81,0.00,,,0.06,,2013-03-24 00:53:00,
2013-03-23 21:02:00,50.0,45.0,29.96,SW,223,0.0,1.0,82,0.00,,,0.06,,2013-03-24 01:02:00,
2013-03-23 21:12:00,50.0,45.0,29.96,SW,223,0.0,1.0,82,0.00,,,0.06,,2013-03-24 01:12:00,
2013-03-23 21:22:00,49.0,44.0,29.97,SW,223,1.0,3.0,83,0.00,,,0.06,,2013-03-24 01:22:00,
2013-03-23 21:33:00,49.0,45.0,29.96,SW,223,0.0,1.0,85,0.00,,,0.06,,2013-03-24 01:33:00,
2013-03-23 21:43:00,49.0,45.0,29.96,SW,223,0.0,1.0,85,0.00,,,0.06,,2013-03-24 01:43:00,
2013-03-23 21:53:00,49.0,44.0,29.96,SW,223,0.0,2.0,84,0.00,,,0.06,,2013-03-24 01:53:00,
2013-03-23 22:03:00,49.0,44.0,29.96,SW,223,1.0,2.0,84,0.00,,,0.06,,2013-03-24 02:03:00,
2013-03-23 22:12:00,49.0,44.0,29.96,SW,223,1.0,2.0,84,0.00,,,0.06,,2013-03-24 02:12:00,
2013-03-23 22:22:00,49.0,44.0,29.95,SW,223,0.0,0.0,84,0.00,,,0.06,,2013-03-24 02:22:00,
2013-03-23 22:32:00,49.0,44.0,29.96,SW,223,0.0,0.0,84,0.00,,,0.06,,2013-03-24 02:32:00,
2013-03-23 22:42:00,49.0,44.0,29.96,SW,223,0.0,0.0,84,0.00,,,0.06,,2013-03-24 02:42:00,
2013-03-23 22:52:00,49.0,45.0,29.95,WSW,243,3.0,6.0,85,0.00,,,0.06,,2013-03-24 02:52:00,
2013-03-23 23:02:00,49.0,45.0,29.93,WSW,243,0.0,0.0,85,0.00,,,0.06,,2013-03-24 03:02:00,
2013-03-23 23:12:00,49.0,45.0,29.93,WSW,243,0.0,0.0,85,0.00,,,0.06,,2013-03-24 03:12:00,
2013-03-23 23:23:00,48.0,44.0,29.92,WSW,243,0.0,1.0,85,0.00,,,0.06,,2013-03-24 03:23:00,
2013-03-23 23:33:00,48.0,44.0,29.93,SW,232,1.0,3.0,86,0.00,,,0.06,,2013-03-24 03:33:00,
2013-03-23 23:42:00,48.0,44.0,29.93,SW,232,1.0,3.0,86,0.00,,,0.06,,2013-03-24 03:42:00,
2013-03-23 23:53:00,48.0,44.0,29.93,SW,233,1.0,3.0,87,0.00,,,0.06,,2013-03-24 03:53:00,